This is the latest recevied weather packets stored in our database for station/object DB0LS-15. If no packets are shown the sender has not sent any weather packets the latest 10 day(s).
| Time | Temp. | Humidity | Pressure | Rain* | Wind** | Luminosity | Snow |
|---|---|---|---|---|---|---|---|
| 1777881921 | 18.89° C | 59% | 995.7 hPa | 0 mm | - | - | - |
| 1777881318 | 18.89° C | 58% | 995.9 hPa | 0 mm | - | - | - |
| 1777880774 | 18.33° C | 58% | 995.8 hPa | 0 mm | - | - | - |
| 1777880170 | 18.33° C | 58% | 995.4 hPa | 0 mm | - | - | - |
| 1777879566 | 18.33° C | 60% | 995.4 hPa | 0 mm | - | - | - |
| 1777878963 | 17.78° C | 63% | 995.5 hPa | 0 mm | - | - | - |
| 1777878359 | 17.22° C | 62% | 995.4 hPa | 0 mm | - | - | - |
| 1777877755 | 17.22° C | 63% | 995.4 hPa | 0 mm | - | - | - |
| 1777877152 | 16.67° C | 65% | 995.1 hPa | 0 mm | - | - | - |
| 1777876547 | 16.11° C | 66% | 995.1 hPa | 0 mm | - | - | - |
| 1777875944 | 16.11° C | 65% | 995.1 hPa | 0 mm | - | - | - |
| 1777875340 | 15.56° C | 68% | 995 hPa | 0 mm | - | - | - |
| 1777874736 | 15.56° C | 67% | 994.8 hPa | 0 mm | - | - | - |
| 1777874132 | 15.56° C | 68% | 994.9 hPa | 0 mm | - | - | - |
| 1777873559 | 15.56° C | 69% | 994.7 hPa | 0 mm | - | - | - |
| 1777872955 | 15.56° C | 68% | 994.5 hPa | 0 mm | - | - | - |
| 1777872351 | 15.56° C | 67% | 994.6 hPa | 0 mm | - | - | - |
| 1777871747 | 15.56° C | 65% | 994.6 hPa | 0 mm | - | - | - |
| 1777871144 | 15.56° C | 66% | 994.6 hPa | 0 mm | - | - | - |
| 1777870540 | 15.56° C | 64% | 994.3 hPa | 0 mm | - | - | - |
| 1777869936 | 15.56° C | 64% | 994.4 hPa | 0 mm | - | - | - |
| 1777869332 | 15° C | 66% | 994.5 hPa | 0 mm | - | - | - |
| 1777868728 | 15° C | 67% | 994.5 hPa | 0 mm | - | - | - |
| 1777868124 | 15° C | 66% | 994.3 hPa | 0 mm | - | - | - |
| 1777867521 | 15° C | 65% | 994.4 hPa | 0 mm | - | - | - |
* Rain latest hour (hover to see other rain measurements)
** Current wind speed in m/s (hover to see current wind gust speed)